Weather History for Ann Arbor, MI

Change the Weather History Date:

Thursday, March 10, 2011

  Actual Average Record
Temperature  
Mean Temperature 37 °F -  
Max Temperature 42 °F 37 °F 61 °F (2013)
Min Temperature 30 °F 20 °F 7 °F (2003)
Degree Days  
Heating Degree Days 28    
Moisture  
Dew Point 35 °F    
Average Humidity 95    
Maximum Humidity 100    
Minimum Humidity 82    
Precipitation  
Precipitation 0.01 in - - ()
Sea Level Pressure  
Sea Level Pressure 29.83 in    
Wind  
Wind Speed 7 mph (NW)    
Max Wind Speed 17 mph    
Max Gust Speed 25 mph    
Visibility 5 miles    
Events Fog , Snow    
Averages and records for this station are not official NWS values.
T = Trace of Precipitation, MM = Missing Value Source: NWS Daily Summary

Daily Weather History Graph

Daily Weather History Graph

Search for Another Location

Airport:

Trip Planner

Search our weather history database for the weather conditions in past years. The results will help you decide how hot, cold, wet, or windy it might be!

Date:

Astronomy

Mar. 10, 2011 Rise Set
Actual Time 6:55 AM EST 6:35 PM EST
Civil Twilight 6:27 AM EST 7:03 PM EST
Nautical Twilight 5:55 AM EST 7:35 PM EST
Astronomical Twilight 5:22 AM EST 8:08 PM EST
Moon 9:17 AM EST (3/10) No Moon Set
Length of Visible Light 12h 35m
Length of Day
11h 39m
Waxing Crescent, 28% of the Moon is Illuminated
Mar 10
Waxing Crescent
Mar 12
First Quarter
Mar 19
Full
Mar 26
Last Quarter
Apr 3
New

Hourly Weather History & Observations

Time (EST) Temp. Windchill Dew Point Humidity Pressure Visibility Wind Dir Wind Speed Gust Speed Precip Events Conditions
12:53 AM 37.9 °F - 37.9 °F 100% 29.80 in 0.2 mi Calm Calm - N/A Fog Fog
1:22 AM 39.2 °F - 39.2 °F 100% 29.78 in 0.2 mi Calm Calm - N/A Fog Fog
1:53 AM 39.0 °F - 39.0 °F 100% 29.80 in 0.2 mi Calm Calm - N/A Fog Fog
2:53 AM 37.9 °F 34.4 °F 37.9 °F 100% 29.80 in 0.2 mi SSW 4.6 mph - N/A Fog Fog
3:53 AM 39.9 °F - 39.9 °F 100% 29.79 in 0.2 mi Calm Calm - N/A Fog Fog
4:53 AM 42.1 °F 38.4 °F 42.1 °F 100% 29.79 in 0.5 mi South 5.8 mph - N/A Fog Fog
5:10 AM 42.8 °F 39.3 °F 42.8 °F 100% 29.78 in 1.2 mi SW 5.8 mph - N/A   Overcast
5:20 AM 42.8 °F 39.3 °F 42.8 °F 100% 29.78 in 1.8 mi SSW 5.8 mph - N/A   Overcast
5:27 AM 42.8 °F 39.3 °F 42.8 °F 100% 29.78 in 2.5 mi SSW 5.8 mph - N/A   Overcast
5:35 AM 41.0 °F 37.1 °F 41.0 °F 100% 29.78 in 3.0 mi SW 5.8 mph - N/A   Overcast
5:49 AM 42.8 °F 39.3 °F 42.8 °F 100% 29.78 in 4.0 mi WSW 5.8 mph - N/A   Overcast
5:53 AM 41.0 °F 37.1 °F 41.0 °F 100% 29.80 in 3.0 mi WSW 5.8 mph - N/A   Overcast
6:01 AM 41.0 °F 38.0 °F 41.0 °F 100% 29.78 in 2.0 mi WSW 4.6 mph - N/A   Overcast
6:06 AM 39.2 °F 35.0 °F 39.2 °F 100% 29.77 in 1.2 mi West 5.8 mph - N/A   Overcast
6:17 AM 39.2 °F 34.2 °F 39.2 °F 100% 29.78 in 0.8 mi West 6.9 mph - N/A   Overcast
6:24 AM 41.0 °F 36.4 °F 41.0 °F 100% 29.78 in 1.5 mi West 6.9 mph - N/A   Overcast
6:34 AM 39.2 °F 34.2 °F 39.2 °F 100% 29.78 in 2.5 mi West 6.9 mph - N/A   Overcast
6:41 AM 41.0 °F 35.8 °F 41.0 °F 100% 29.78 in 4.0 mi WNW 8.1 mph - N/A   Overcast
6:53 AM 39.9 °F 33.4 °F 39.9 °F 100% 29.80 in 3.0 mi WNW 10.4 mph - N/A   Overcast
7:53 AM 37.9 °F 32.7 °F 37.9 °F 100% 29.82 in 9.0 mi NW 6.9 mph - N/A   Overcast
8:02 AM 37.4 °F 31.4 °F 37.4 °F 100% 29.81 in 9.0 mi NW 8.1 mph - N/A   Overcast
8:53 AM 37.0 °F 31.0 °F 36.0 °F 96% 29.85 in 8.0 mi WNW 8.1 mph - N/A   Overcast
9:27 AM 35.6 °F 28.0 °F 35.6 °F 100% 29.82 in 5.0 mi NW 10.4 mph - N/A   Overcast
9:53 AM 36.0 °F 29.6 °F 36.0 °F 100% 29.85 in 5.0 mi NW 8.1 mph - N/A   Overcast
10:53 AM 36.0 °F 28.5 °F 35.1 °F 97% 29.85 in 6.0 mi NW 10.4 mph - N/A   Overcast
11:10 AM 35.6 °F 27.1 °F 35.6 °F 100% 29.84 in 7.0 mi NNW 12.7 mph - N/A   Overcast
11:53 AM 36.0 °F 27.1 °F 34.0 °F 93% 29.87 in 10.0 mi NNW 13.8 mph 24.2 mph 0.01 in   Overcast
12:53 PM 36.0 °F 28.0 °F 34.0 °F 93% 29.85 in 10.0 mi NNW 11.5 mph - N/A   Overcast
1:53 PM 36.0 °F 28.0 °F 33.1 °F 89% 29.85 in 10.0 mi NNW 11.5 mph 21.9 mph N/A   Overcast
2:53 PM 35.1 °F 25.2 °F 32.0 °F 89% 29.84 in 10.0 mi NNW 16.1 mph 23.0 mph N/A   Overcast
3:53 PM 34.0 °F 26.0 °F 30.9 °F 89% 29.87 in 9.0 mi NNW 10.4 mph - N/A   Overcast
4:09 PM 33.8 °F 23.5 °F 30.2 °F 87% 29.86 in 10.0 mi NNW 16.1 mph 21.9 mph N/A   Overcast
4:46 PM 33.8 °F 26.4 °F 30.2 °F 87% 29.86 in 10.0 mi NNW 9.2 mph - N/A   Overcast
4:53 PM 35.1 °F 27.9 °F 30.0 °F 82% 29.88 in 10.0 mi NNW 9.2 mph - N/A   Overcast
5:49 PM 33.8 °F 24.8 °F 30.2 °F 87% 29.85 in 4.0 mi NNW 12.7 mph 23.0 mph 0.00 in Snow Light Snow
5:53 PM 33.1 °F 23.9 °F 30.9 °F 92% 29.88 in 3.0 mi NNW 12.7 mph 20.7 mph 0.00 in Snow Light Snow
6:06 PM 33.8 °F 23.2 °F 30.2 °F 87% 29.83 in 3.0 mi NNW 17.3 mph 25.3 mph 0.00 in Snow Light Snow
6:37 PM 33.8 °F 25.3 °F 30.2 °F 87% 29.87 in 10.0 mi NNW 11.5 mph 17.3 mph 0.00 in   Overcast
6:53 PM 33.1 °F 24.9 °F 30.9 °F 92% 29.91 in 9.0 mi NNW 10.4 mph - 0.00 in   Overcast
7:53 PM 33.1 °F 24.9 °F 30.9 °F 92% 29.88 in 3.0 mi NNW 10.4 mph 20.7 mph 0.00 in Snow Light Snow
8:15 PM 33.8 °F 24.3 °F 30.2 °F 87% 29.87 in 2.0 mi NW 13.8 mph 18.4 mph 0.00 in Snow Light Snow
8:43 PM 32.0 °F 22.1 °F 30.2 °F 93% 29.86 in 3.0 mi NNW 13.8 mph 20.7 mph 0.00 in Snow Light Snow
8:53 PM 32.0 °F 21.6 °F 30.0 °F 92% 29.89 in 3.0 mi NW 15.0 mph 21.9 mph 0.00 in Snow Light Snow
9:53 PM 32.0 °F 22.5 °F 28.9 °F 88% 29.87 in 4.0 mi NNW 12.7 mph 23.0 mph 0.00 in Snow Light Snow
10:09 PM 32.0 °F 20.8 °F 28.4 °F 87% 29.82 in 2.5 mi NNW 17.3 mph 21.9 mph 0.00 in Snow Light Snow
10:19 PM 32.0 °F 23.0 °F 30.2 °F 93% 29.83 in 3.0 mi NW 11.5 mph 21.9 mph 0.00 in Snow Light Snow
10:40 PM 32.0 °F 22.1 °F 30.2 °F 93% 29.81 in 2.5 mi NW 13.8 mph 21.9 mph 0.00 in Snow Light Snow
10:53 PM 32.0 °F 22.5 °F 28.9 °F 88% 29.86 in 3.0 mi NNW 12.7 mph 20.7 mph 0.00 in Snow Light Snow
11:53 PM 30.9 °F 21.2 °F 27.0 °F 85% 29.85 in 10.0 mi NNW 12.7 mph 24.2 mph 0.00 in   Overcast